Time,TemperatureF,DewpointF,PressureIn,WindDirection,WindDirectionDegrees,WindSpeedMPH,WindSpeedGustMPH,Humidity,HourlyPrecipIn,Conditions,Clouds,dailyrainin,SoftwareType,DateUTC
2013-09-06 00:00:00,74.0,-99.9,-100.00,North,-999,4.0,6.0,30,-99.99,,,-99.99,,2013-09-06 06:00:00,
2013-09-06 00:22:00,-999.0,-99.9,-100.00,North,-999,4.0,6.0,30,-99.99,,,-99.99,,2013-09-06 06:22:00,
2013-09-06 00:42:00,74.0,-99.9,-100.00,North,-999,4.0,6.0,30,-99.99,,,-99.99,,2013-09-06 06:42:00,
2013-09-06 00:53:00,74.0,-99.9,-100.00,North,-999,4.0,6.0,30,-99.99,,,-99.99,,2013-09-06 06:53:00,
2013-09-06 01:00:00,77.0,-99.9,-100.00,North,-999,6.0,9.0,26,-99.99,,,-99.99,,2013-09-06 07:00:00,
2013-09-06 01:23:00,-999.0,-99.9,-100.00,North,-999,6.0,9.0,26,-99.99,,,-99.99,,2013-09-06 07:23:00,
2013-09-06 01:42:00,77.0,-99.9,-100.00,North,-999,6.0,9.0,26,-99.99,,,-99.99,,2013-09-06 07:42:00,
2013-09-06 01:52:00,77.0,-99.9,-100.00,North,-999,6.0,9.0,26,-99.99,,,-99.99,,2013-09-06 07:52:00,
2013-09-06 02:00:00,74.0,-99.9,-100.00,North,-999,3.0,8.0,36,-99.99,,,-99.99,,2013-09-06 08:00:00,
2013-09-06 02:22:00,-999.0,-99.9,-100.00,North,-999,3.0,8.0,36,-99.99,,,-99.99,,2013-09-06 08:22:00,
2013-09-06 02:43:00,74.0,-99.9,-100.00,North,-999,3.0,8.0,36,-99.99,,,-99.99,,2013-09-06 08:43:00,
2013-09-06 02:52:00,74.0,-99.9,-100.00,North,-999,3.0,8.0,36,-99.99,,,-99.99,,2013-09-06 08:52:00,
2013-09-06 03:00:00,67.0,-99.9,-100.00,North,-999,1.0,4.0,42,-99.99,,,-99.99,,2013-09-06 09:00:00,
2013-09-06 03:22:00,-999.0,-99.9,-100.00,North,-999,1.0,4.0,42,-99.99,,,-99.99,,2013-09-06 09:22:00,
2013-09-06 03:54:00,67.0,-99.9,-100.00,North,-999,1.0,4.0,42,-99.99,,,-99.99,,2013-09-06 09:54:00,
2013-09-06 04:23:00,-999.0,-99.9,-100.00,North,-999,2.0,3.0,50,-99.99,,,-99.99,,2013-09-06 10:23:00,
2013-09-06 05:00:00,63.0,-99.9,-100.00,North,-999,1.0,4.0,54,-99.99,,,-99.99,,2013-09-06 11:00:00,
2013-09-06 05:22:00,-999.0,-99.9,-100.00,North,-999,1.0,4.0,54,-99.99,,,-99.99,,2013-09-06 11:22:00,
2013-09-06 05:52:00,63.0,-99.9,-100.00,North,-999,1.0,4.0,54,-99.99,,,-99.99,,2013-09-06 11:52:00,
2013-09-06 06:22:00,-999.0,-99.9,-100.00,North,-999,1.0,3.0,60,-99.99,,,-99.99,,2013-09-06 12:22:00,
2013-09-06 07:22:00,-999.0,-99.9,-100.00,North,-999,3.0,5.0,59,-99.99,,,-99.99,,2013-09-06 13:22:00,
2013-09-06 08:00:00,68.0,-99.9,-100.00,North,-999,3.0,5.0,56,-99.99,,,-99.99,,2013-09-06 14:00:00,
2013-09-06 08:22:00,-999.0,-99.9,-100.00,North,-999,3.0,5.0,56,-99.99,,,-99.99,,2013-09-06 14:22:00,
2013-09-06 08:42:00,68.0,-99.9,-100.00,North,-999,3.0,5.0,56,-99.99,,,-99.99,,2013-09-06 14:42:00,
2013-09-06 08:52:00,68.0,-99.9,-100.00,North,-999,3.0,5.0,56,-99.99,,,-99.99,,2013-09-06 14:52:00,
2013-09-06 09:00:00,76.0,-99.9,-100.00,North,-999,2.0,5.0,46,-99.99,,,-99.99,,2013-09-06 15:00:00,
2013-09-06 09:22:00,-999.0,-99.9,-100.00,North,-999,2.0,5.0,46,-99.99,,,-99.99,,2013-09-06 15:22:00,
2013-09-06 09:43:00,76.0,-99.9,-100.00,North,-999,2.0,5.0,46,-99.99,,,-99.99,,2013-09-06 15:43:00,
2013-09-06 09:53:00,76.0,-99.9,-100.00,North,-999,2.0,5.0,46,-99.99,,,-99.99,,2013-09-06 15:53:00,
2013-09-06 10:00:00,82.0,-99.9,-100.00,North,-999,2.0,4.0,38,-99.99,,,-99.99,,2013-09-06 16:00:00,
2013-09-06 10:24:00,-999.0,-99.9,-100.00,North,-999,2.0,4.0,38,-99.99,,,-99.99,,2013-09-06 16:24:00,
2013-09-06 10:43:00,82.0,-99.9,-100.00,North,-999,2.0,4.0,38,-99.99,,,-99.99,,2013-09-06 16:43:00,
2013-09-06 10:54:00,82.0,-99.9,-100.00,North,-999,2.0,4.0,38,-99.99,,,-99.99,,2013-09-06 16:54:00,
2013-09-06 11:00:00,84.0,-99.9,-100.00,North,-999,3.0,8.0,34,-99.99,,,-99.99,,2013-09-06 17:00:00,
2013-09-06 11:24:00,-999.0,-99.9,-100.00,North,-999,3.0,8.0,34,-99.99,,,-99.99,,2013-09-06 17:24:00,
2013-09-06 11:43:00,84.0,-99.9,-100.00,North,-999,3.0,8.0,34,-99.99,,,-99.99,,2013-09-06 17:43:00,
2013-09-06 11:53:00,84.0,-99.9,-100.00,North,-999,3.0,8.0,34,-99.99,,,-99.99,,2013-09-06 17:53:00,
2013-09-06 12:00:00,85.0,-99.9,-100.00,North,-999,3.0,6.0,31,-99.99,,,-99.99,,2013-09-06 18:00:00,
2013-09-06 12:22:00,-999.0,-99.9,-100.00,North,-999,3.0,6.0,31,-99.99,,,-99.99,,2013-09-06 18:22:00,
2013-09-06 12:42:00,85.0,-99.9,-100.00,North,-999,3.0,6.0,31,-99.99,,,-99.99,,2013-09-06 18:42:00,
2013-09-06 12:52:00,85.0,-99.9,-100.00,North,-999,3.0,6.0,31,-99.99,,,-99.99,,2013-09-06 18:52:00,
2013-09-06 13:00:00,89.0,-99.9,-100.00,North,-999,5.0,12.0,18,-99.99,,,-99.99,,2013-09-06 19:00:00,
2013-09-06 13:22:00,-999.0,-99.9,-100.00,North,-999,5.0,12.0,18,-99.99,,,-99.99,,2013-09-06 19:22:00,
2013-09-06 13:43:00,89.0,-99.9,-100.00,North,-999,5.0,12.0,18,-99.99,,,-99.99,,2013-09-06 19:43:00,
2013-09-06 13:52:00,89.0,-99.9,-100.00,North,-999,5.0,12.0,18,-99.99,,,-99.99,,2013-09-06 19:52:00,
2013-09-06 14:00:00,90.0,-99.9,-100.00,North,-999,5.0,13.0,21,-99.99,,,-99.99,,2013-09-06 20:00:00,
2013-09-06 14:23:00,-999.0,-99.9,-100.00,North,-999,5.0,13.0,21,-99.99,,,-99.99,,2013-09-06 20:23:00,
2013-09-06 14:43:00,90.0,-99.9,-100.00,North,-999,5.0,13.0,21,-99.99,,,-99.99,,2013-09-06 20:43:00,
2013-09-06 14:52:00,90.0,-99.9,-100.00,North,-999,5.0,13.0,21,-99.99,,,-99.99,,2013-09-06 20:52:00,
2013-09-06 15:00:00,90.0,-99.9,-100.00,North,-999,5.0,11.0,21,-99.99,,,-99.99,,2013-09-06 21:00:00,
2013-09-06 15:23:00,-999.0,-99.9,-100.00,North,-999,5.0,11.0,21,-99.99,,,-99.99,,2013-09-06 21:23:00,
2013-09-06 15:43:00,90.0,-99.9,-100.00,North,-999,5.0,11.0,21,-99.99,,,-99.99,,2013-09-06 21:43:00,
2013-09-06 15:54:00,90.0,-99.9,-100.00,North,-999,5.0,11.0,21,-99.99,,,-99.99,,2013-09-06 21:54:00,
2013-09-06 16:00:00,89.0,-99.9,-100.00,North,-999,5.0,12.0,23,-99.99,,,-99.99,,2013-09-06 22:00:00,
2013-09-06 16:23:00,-999.0,-99.9,-100.00,North,-999,5.0,12.0,23,-99.99,,,-99.99,,2013-09-06 22:23:00,
2013-09-06 16:44:00,89.0,-99.9,-100.00,North,-999,5.0,12.0,23,-99.99,,,-99.99,,2013-09-06 22:44:00,
2013-09-06 16:54:00,89.0,-99.9,-100.00,North,-999,5.0,12.0,23,-99.99,,,-99.99,,2013-09-06 22:54:00,
2013-09-06 17:00:00,86.0,-99.9,-100.00,North,-999,5.0,23.0,29,-99.99,,,-99.99,,2013-09-06 23:00:00,
2013-09-06 17:23:00,-999.0,-99.9,-100.00,North,-999,5.0,23.0,29,-99.99,,,-99.99,,2013-09-06 23:23:00,
2013-09-06 17:43:00,86.0,-99.9,-100.00,North,-999,5.0,23.0,29,-99.99,,,-99.99,,2013-09-06 23:43:00,
2013-09-06 17:52:00,86.0,-99.9,-100.00,North,-999,5.0,23.0,29,-99.99,,,-99.99,,2013-09-06 23:52:00,
2013-09-06 18:00:00,85.0,-99.9,-100.00,North,-999,5.0,10.0,33,-99.99,,,-99.99,,2013-09-07 00:00:00,
2013-09-06 18:22:00,-999.0,-99.9,-100.00,North,-999,5.0,10.0,33,-99.99,,,-99.99,,2013-09-07 00:22:00,
2013-09-06 18:42:00,85.0,-99.9,-100.00,North,-999,5.0,10.0,33,-99.99,,,-99.99,,2013-09-07 00:42:00,
2013-09-06 18:52:00,85.0,-99.9,-100.00,North,-999,5.0,10.0,33,-99.99,,,-99.99,,2013-09-07 00:52:00,
2013-09-06 19:00:00,84.0,-99.9,-100.00,North,-999,4.0,8.0,34,-99.99,,,-99.99,,2013-09-07 01:00:00,
2013-09-06 19:42:00,84.0,-99.9,-100.00,North,-999,4.0,8.0,34,-99.99,,,-99.99,,2013-09-07 01:42:00,
2013-09-06 19:54:00,84.0,-99.9,-100.00,North,-999,4.0,8.0,34,-99.99,,,-99.99,,2013-09-07 01:54:00,
2013-09-06 20:00:00,80.0,-99.9,-100.00,North,-999,4.0,9.0,38,-99.99,,,-99.99,,2013-09-07 02:00:00,
2013-09-06 20:23:00,-999.0,-99.9,-100.00,North,-999,4.0,9.0,38,-99.99,,,-99.99,,2013-09-07 02:23:00,
2013-09-06 20:43:00,80.0,-99.9,-100.00,North,-999,4.0,9.0,38,-99.99,,,-99.99,,2013-09-07 02:43:00,
2013-09-06 20:52:00,80.0,-99.9,-100.00,North,-999,4.0,9.0,38,-99.99,,,-99.99,,2013-09-07 02:52:00,
2013-09-06 21:00:00,78.0,-99.9,-100.00,North,-999,5.0,8.0,41,-99.99,,,-99.99,,2013-09-07 03:00:00,
2013-09-06 21:23:00,-999.0,-99.9,-100.00,North,-999,5.0,8.0,41,-99.99,,,-99.99,,2013-09-07 03:23:00,
2013-09-06 21:45:00,78.0,-99.9,-100.00,North,-999,5.0,8.0,41,-99.99,,,-99.99,,2013-09-07 03:45:00,
2013-09-06 21:55:00,78.0,-99.9,-100.00,North,-999,5.0,8.0,41,-99.99,,,-99.99,,2013-09-07 03:55:00,
2013-09-06 22:00:00,78.0,-99.9,-100.00,North,-999,5.0,7.0,38,-99.99,,,-99.99,,2013-09-07 04:00:00,
2013-09-06 22:24:00,-999.0,-99.9,-100.00,North,-999,5.0,7.0,38,-99.99,,,-99.99,,2013-09-07 04:24:00,
2013-09-06 22:43:00,78.0,-99.9,-100.00,North,-999,5.0,7.0,38,-99.99,,,-99.99,,2013-09-07 04:43:00,
2013-09-06 22:54:00,78.0,-99.9,-100.00,North,-999,5.0,7.0,38,-99.99,,,-99.99,,2013-09-07 04:54:00,
2013-09-06 23:00:00,79.0,-99.9,-100.00,North,-999,3.0,6.0,37,-99.99,,,-99.99,,2013-09-07 05:00:00,
2013-09-06 23:23:00,-999.0,-99.9,-100.00,North,-999,3.0,6.0,37,-99.99,,,-99.99,,2013-09-07 05:23:00,
2013-09-06 23:42:00,79.0,-99.9,-100.00,North,-999,3.0,6.0,37,-99.99,,,-99.99,,2013-09-07 05:42:00,
2013-09-06 23:52:00,79.0,-99.9,-100.00,North,-999,3.0,6.0,37,-99.99,,,-99.99,,2013-09-07 05:52:00,